Terminal Aerodrome Forecast
Issued by NWS Charleston, WV

Current Version | Previous Version | Graphics & Text | Print | Product List | Glossary On
Versions: 1 2 3 4 5 6 7 8 9 10 11 12 13 14 15 16 17 18 19 20 21 22 23
266
FTUS41 KRLX 110520
TAFEKN
TAF
KEKN 110520Z 1106/1206 27008G17KT P6SM OVC040
     FM111700 21005KT P6SM SCT200
     FM120500 20006KT P6SM BKN100=

USA.gov is the U.S. government's official web portal to all federal, state and local government web resources and services.